Find Starlink 4152

NORAD ID: 53136 Int'l Des: 2022-083 Owner: SPXS Country: US Constellation: starlink operational
LEOCIRCULAR

Live Position

Loading 3D Globe...

About Starlink 4152

Description loading...

Upcoming Passes

Passes for default location (London). Set your location on the main map for personalized predictions.

Altitude History

Loading altitude history...

Two-Line Element Set

1 53136U 22083E 26123.19392603 .00000211 00000-0 31335-4 0 9993
2 53136 53.2183 289.4429 0001316 85.5744 274.5399 15.08840302210434
Epoch: May 3, 2026 • Age: 6 hours

Current Status

Altitude 544.6 km
Velocity 7.59 km/s
Sub-Earth Point -16.49°S, 105.14°E
Launch Date Jul 17, 2022
Age 3.7 years
Type internet

Technical Details

Classification Payload
Mass 297.00 kg
Dry Mass 275.00 kg
Total Mass 297.00 kg
Length 0.20 m
Diameter 2.80 m
Span 9.00 m
Shape Box + pan
Manufacturer SPXS
Bus Type Starlink
Phase Status In Orbit
Owner/State SPXS/US

Most Searched